Location: Dimsdale
(55.1333°N, 118.9833°W)
Time: 04:35:08
(UTC+00:00)

BEESAT 2 - Visible Passes

Search period start: 07 December 2023 00:00
Search period end: 17 December 2023 00:00
Orbit: 355 x 379 km, 64.9° (Epoch: 06 December)

Date Brightness Start Highest point End Pass type
(mag) Time Alt. Az. Time Alt. Az. Time Alt. Az.
07 Dec ? 13:00:09 26° E 13:00:09 26° E 13:02:01 10° ENE visible
07 Dec ? 14:32:06 21° W 14:33:36 35° NNW 14:36:31 10° NE visible
08 Dec ? 13:31:09 43° NE 13:31:09 43° NE 13:33:21 10° NE visible
08 Dec ? 15:03:04 12° WNW 15:05:06 20° NNW 15:07:31 10° NNE visible
09 Dec ? 14:01:41 32° NNW 14:01:41 32° NNW 14:04:08 10° NE visible
10 Dec ? 12:59:56 14° NE 12:59:56 14° NE 13:00:27 10° NE visible
10 Dec ? 14:31:48 19° NNW 14:32:12 20° NNW 14:34:33 10° NNE visible
11 Dec ? 13:29:42 17° NNE 13:29:42 17° NNE 13:30:39 10° NE visible
11 Dec ? 15:01:33 12° NW 15:02:58 15° N 15:04:48 10° NNE visible
12 Dec ? 13:59:06 17° N 13:59:06 17° N 14:00:29 10° NNE visible
13 Dec ? 14:28:11 14° NNW 14:28:22 15° N 14:30:10 10° NNE visible
14 Dec ? 13:25:08 11° NNE 13:25:08 11° NNE 13:25:19 10° NNE visible
14 Dec ? 14:56:56 11° NNW 14:58:19 13° N 14:59:57 10° NE visible
15 Dec ? 13:53:35 13° NNE 13:53:35 13° NNE 13:54:25 10° NNE visible
15 Dec ? 15:26:02 10° NNW 15:27:59 16° NNE 15:29:54 10° NE visible
16 Dec ? 14:21:44 13° N 14:22:03 13° N 14:23:38 10° NE visible
